This demonstration page uses our WeatherBlox Daily Observations layout. Learn more.

Left ArrowRight Arrow

34.74481, -87.66753

Hourly Observations for April 5, 2017

Temp ( °F °C ) Dew Point ( °F °C ) Humidity (%) Winds ( mph kmh ) Pressure ( in mb ) Visibility ( mi km ) Precip ( " mm )
12:53 am 00:53 Clear 63 17.2 51 10.6 65 65 SE 8 13 29.74 1007 10 16 0.00 0.00
1:53 am 01:53 Clear 62 16.7 51 10.6 67 67 SSE 5 7 29.74 1007 10 16 0.00 0.00
2:53 am 02:53 Clear 63 17.2 52 11.1 68 68 S 5 7 29.75 1008 10 16 0.00 0.00
3:53 am 03:53 Clear 63 17.2 52 11.1 68 68 S 5 7 29.75 1007 10 16 0.00 0.00
4:53 am 04:53 Clear 60 15.6 52 11.1 75 75 SSE 7 11 29.74 1007 10 16 0.00 0.00
5:53 am 05:53 Mostly Clear 61 16.1 52 11.1 72 72 SE 7 11 29.73 1007 10 16 0.00 0.00
6:53 am 06:53 Mostly Cloudy 60 15.6 53 11.7 78 78 SE 5 7 29.72 1006 10 16 0.00 0.00
7:50 am 07:50 Mostly Cloudy 63 17 55 13 77 77 Calm 29.71 1006 10 16 0.00 0.00
7:53 am 07:53 Mostly Cloudy 63 17.2 56 13.3 78 78 Calm 29.70 1006 10 16 0.00 0.00
8:20 am 08:20 Cloudy 63 17.2 56 13.3 78 78 SSE 5 7 29.74 1007 10 16 0.00 0.00
8:32 am 08:32 Cloudy 64 17.8 56 13.3 75 75 SSE 9 15 29.74 1007 10 16 0.00 0.00
8:53 am 08:53 Cloudy 64 17.8 58 14.4 81 81 SSE 7 11 29.72 1007 10 16 0.00 0.03
9:53 am 09:53 Mostly Cloudy 70 21.1 62 16.7 76 76 S 9 15 29.69 1005 9 14 0.00 0.00
10:06 am 10:06 Partly Cloudy 71 21.7 62 16.7 73 73 SSW 9 15 29.71 1006 10 16 0.00 0.00
10:42 am 10:42 Cloudy 71 21.7 62 16.7 73 73 SSW 12 19 29.71 1006 10 16 0.00 0.00
10:53 am 10:53 Mostly Cloudy 73 22.8 62 16.7 69 69 S 7 11 29.68 1005 10 16 0.00 0.00
11:53 am 11:53 Mostly Sunny 77 25 63 17.2 62 62 S 15 24 29.62 1003 10 16 0.00 0.00
12:53 pm 12:53 Mostly Sunny 81 27.2 61 16.1 51 51 SSW 16 26 29.58 1002 10 16 0.00 0.00
1:53 pm 13:53 Partly Cloudy 81 27.2 58 14.4 45 45 SW 20 31 29.57 1001 10 16 0.00 0.00
2:53 pm 14:53 Sunny 83 28.3 52 11.1 34 34 SW 20 31 29.54 1000 10 16 0.00 0.00
3:53 pm 15:53 Sunny 78 25.6 54 12.2 43 43 W 29 46 29.56 1001 10 16 0.00 0.00
4:53 pm 16:53 Sunny 76 24.4 44 6.7 32 32 W 28 44 29.59 1002 10 16 0.00 0.00
5:53 pm 17:53 Sunny 70 21.1 44 6.7 39 39 W 24 39 29.64 1004 10 16 0.00 0.00
6:53 pm 18:53 Mostly Sunny 63 17.2 42 5.6 47 47 W 28 44 29.70 1006 10 16 0.00 0.00
7:53 pm 19:53 Cloudy 60 15.6 41 5 50 50 W 21 33 29.72 1007 10 16 0.00 0.00
8:53 pm 20:53 Cloudy 59 15 41 5 51 51 W 28 44 29.75 1007 10 16 0.00 0.00
9:53 pm 21:53 Mostly Clear 55 12.8 42 5.6 62 62 W 21 33 29.75 1008 10 16 0.00 0.00
10:53 pm 22:53 Cloudy 53 11.7 41 5 64 64 W 24 39 29.76 1008 10 16 0.00 0.03
11:53 pm 23:53 Cloudy 52 11.1 42 5.6 69 69 W 22 35 29.77 1008 10 16 0.00 0.03

Powered by AerisWeather